Flag for Colombia Weather past 2 weeks in Ibagué, Colombia

Now
73 °F

Passing clouds.


Feels Like: 74 °F
Forecast: 56 / 76 °F
Wind: 2 mph from North

Location: Pereira / Matecana

Current Time: Oct 21, 2014 at 7:55:26 PM

Latest Report: Oct 21, 2014 at 7:00 PM


Visibility: N/A

Pressure: 30.03 "Hg

Humidity: 78%

Dew point: 66 °F

Location of IbaguéLocation

Historic Weather in Ibagué — Graph

°F

Ibagué temperature yesterday

Maximum temperature yesterday: 79 °F (at 2:00 PM)
Minimum temperature yesterday: 64 °F (at 5:00 AM)
Average temperature yesterday: 69 °F

Past Weeks' High & Low Weather Summary

 TemperatureHumidityPressure
High81 °F (Oct 12, 2:00 PM)100% (Oct 8, 10:00 PM)30.23 "Hg (Oct 8, 10:00 PM)
Low63 °F (Oct 9, 1:00 AM)45% (Oct 16, 4:00 PM)29.97 "Hg (Oct 7, 4:00 PM)
Average70 °F81%30.10 "Hg
* Reported Oct 6 6:00 PM — Oct 21 6:00 PM, Ibagué, Weather by CustomWeather, © 2014

Note: Actual official high and low records may vary slightly from our data, if they occured in-between our weather recording intervals... More about our weather records

Advertising

Ibagué weather history for previous 24 hours

 ConditionsComfort  
Time TempWeatherWind HumidityBarometerVisibility
6:00 PM
Oct 21
75 °FPassing clouds.2 mph74%30.02 "HgN/A
5:00 PM79 °FScattered clouds.5 mph61%30.01 "HgN/A
4:00 PM81 °FScattered clouds.2 mph54%30.00 "HgN/A
3:00 PM81 °FScattered clouds.3 mph58%30.03 "HgN/A
2:00 PM81 °FScattered clouds.7 mph58%30.06 "HgN/A
1:00 PM79 °FScattered clouds.5 mph61%30.09 "HgN/A
12:00 PM75 °FScattered clouds.6 mph69%30.09 "HgN/A
11:00 AM73 °FScattered clouds.2 mph74%30.10 "HgN/A
10:00 AM70 °FPartly sunny.2 mph78%30.18 "HgN/A
9:00 AM68 °FFog.2 mph83%30.15 "HgN/A
8:00 AM64 °FFog.2 mph88%30.14 "Hg6 mi
7:00 AM63 °FFog.5 mph88%30.12 "Hg6 mi
6:00 AM64 °FFog.8 mph88%30.11 "Hg6 mi
5:00 AM64 °FFog.7 mph88%30.09 "Hg6 mi
12:00 AM66 °FPassing clouds.7 mph88%30.12 "HgN/A
11:00 PM
Oct 20
66 °FPassing clouds.6 mph88%30.13 "HgN/A
10:00 PM66 °FPassing clouds.3 mph88%30.15 "HgN/A
9:00 PM68 °FPassing clouds.5 mph83%30.12 "HgN/A
8:00 PM68 °FPassing clouds.2 mph83%30.10 "HgN/A
7:00 PM68 °FPassing clouds.7 mph83%30.06 "HgN/A
Weather by CustomWeather, © 2014

See weather overviewHow to use our weather pages